Overview Statistics Trail Chart Weather Telemetry Raw packets
 

This is the latest recevied weather packets stored in our database for station/object E22ZMG-2. If no packets are shown the sender has not sent any weather packets the latest 10 day(s).

<< 26 27 28 29 30 31 32 >>
Time Temp. Humidity Pressure Rain* Wind** Luminosity Snow
1777192780 30° C 57% 924 hPa - - 0 W/m² -
1777192157 29.44° C 58% 925 hPa - - 0 W/m² -
1777191533 28.89° C 60% 925 hPa - - 0 W/m² -
1777191242 28.33° C 62% 925 hPa - - 0 W/m² -
1777170954 27.78° C 66% 930 hPa - - 0 W/m² -
1777170193 27.22° C 66% 929 hPa - - 0 W/m² -
1777169569 27.22° C 68% 929 hPa - - 0 W/m² -
1777168945 26.67° C 69% 929 hPa - - 0 W/m² -
1777168321 26.67° C 70% 929 hPa - - 0 W/m² -
1777167698 26.11° C 73% 929 hPa - - 0 W/m² -
1777167072 25° C 76% 929 hPa - - 0 W/m² -
1777159843 23.89° C 75% 928 hPa - - 0 W/m² -
1777159219 23.89° C 74% 928 hPa - - 0 W/m² -
1777158595 23.89° C 74% 928 hPa - - 0 W/m² -
1777157971 23.89° C 74% 928 hPa - - 0 W/m² -
1777157347 23.89° C 74% 928 hPa - - 0 W/m² -
1777156723 24.44° C 74% 927 hPa - - 0 W/m² -
1777156099 23.33° C 76% 927 hPa - - 0 W/m² -
1777156017 23.89° C 74% 927 hPa - - 0 W/m² -
1777155393 24.44° C 73% 927 hPa - - 0 W/m² -
1777154769 24.44° C 74% 927 hPa - - 0 W/m² -
1777154145 24.44° C 74% 927 hPa - - 0 W/m² -
1777153521 24.44° C 74% 927 hPa - - 0 W/m² -
1777152897 24.44° C 73% 927 hPa - - 0 W/m² -
1777152273 23.89° C 75% 927 hPa - - 0 W/m² -

* Rain since midnight (hover to see other rain measurements)
** Current wind speed in m/s (hover to see current wind gust speed)